Location: Vihti�l�
(61.3833°N, 23.0667°E)
Time: 05:20:00
(UTC+00:00)

Okean 1-7 - Pass Details

Date: 29 November 2020
Orbit: 590 x 619 km, 82.5° (Epoch: 22 January)

Event Time Altitude Azimuth Distance (km) Brightness Sun altitude
Exits shadow 06:09:09 - 343° (NNW) 2,736 5.9 -6.4°
Reaches altitude 10° 06:11:03 10° 340° (NNW) 1,975 5.2 -6.2°
Maximum altitude 06:15:19 55° 263° (W) 732 3.2 -5.8°
Drops below altitude 10° 06:19:31 10° 186° (S) 1,943 6.1 -5.4°
Sets 06:21:44 0° 182° (S) 2,837 7.0 -5.2°
